Bettles Field, AK

8:24 PM AKDT on June 22, 2017 (GMT -0800)
Bettles | | Change Station

Elev 643 ft 66.92 °N, 151.53 °W | Updated 31 minutes ago

Partly Cloudy
Partly Cloudy
67 °F
Feels Like 67 °F
N
5
Wind Variable Wind from SSW

Today
High -- | Low -- °F
--% Chance of Precip.
Yesterday
High -- | Low -- °F
Precip. -- in
Pressure 30.17 in
Visibility 10.0 miles
Clouds Few 7000 ft
Scattered Clouds 11000 ft
Dew Point 44 °F
Humidity 44%
Rainfall 0.00 in
Snow Depth Not available.
2:40 AM 1:35 AM
Waning Crescent, 1% visible
METAR PABT 230353Z 20004KT 10SM FEW070 SCT110 19/07 A3015 RMK AO2 SLP216 T01940067 $
Pressure 30.17 in
Visibility 10.0 miles
Clouds Few 7000 ft
Scattered Clouds 11000 ft
Dew Point 44 °F
Humidity 44%
Rainfall 0.00 in
Snow Depth Not available.
2:40 AM 1:35 AM
Waning Crescent, 1% visible
METAR PABT 230353Z 20004KT 10SM FEW070 SCT110 19/07 A3015 RMK AO2 SLP216 T01940067 $

Get Severe Weather Alerts

Thanks for signing up!

Be on the lookout for a verification email in your inbox.

You'll start receiving the daily forecast at 6 AM.

×

10-Day Weather Forecast

Almanac

Astronomy

Jun. 22, 2017 Rise Set
Actual Time
Civil Twilight
Nautical Twilight
Astronomical Twilight
Moon
Length of Visible Light
Length of Day
Tomorrow will be .
, % of the Moon is Illuminated

Today's Extremes

State Highs State Lows

Community

WunderPhotos

Category 6

Welcome to Category 6. This is the collective home for Weather Underground's featured writeups by Dr. Jeff Masters (right), Bob Henson (left), Chris Burt, and other regular contributors.

Nearby

Air Quality

  Air Quality AQ Index Pollutant
Not available.

Snow Depth

Station Depth Elevation

Earthquake Activity

City Distance Mag. Time & Date
Minimum magnitude displayed is 2.5.

Coastal Water Temperatures

Place Temperature

Stations

Nearby Weather Stations

Station Location Temp. Windchill Dew Point Humidity Wind Precip. Elev Updated Type
                   

Watches & Warnings

There are currently no watches in effect.